| time (UTC) | temp C | wind direction | speed KPH | gust KPH | rain 1hr cm | rain 24hr cm | rain mn cm | humidity % | barometer mb |
| 20260510174010 | 15 | 209 | 0.0 | 3.2 | 0.20 | 0.89 | 0.89 | 96 | 1029.6 |
| 20260510173511 | 15 | 205 | 0.0 | 6.4 | 0.20 | 0.86 | 0.86 | 96 | 1029.6 |
| 20260510173009 | 15 | 204 | 0.0 | 6.4 | 0.25 | 0.86 | 0.86 | 96 | 1029.5 |
| 20260510172510 | 15 | 184 | 0.0 | 3.2 | 0.30 | 0.84 | 0.84 | 96 | 1029.5 |
| 20260510172010 | 15 | 184 | 0.0 | 3.2 | 0.41 | 0.84 | 0.84 | 96 | 1029.5 |
| 20260510171509 | 15 | 177 | 0.0 | 3.2 | 0.53 | 0.81 | 0.81 | 95 | 1029.5 |
| 20260510171009 | 15 | 152 | 0.0 | 3.2 | 0.58 | 0.81 | 0.81 | 95 | 1029.5 |
| 20260510170509 | 15 | 152 | 0.0 | 3.2 | 0.58 | 0.79 | 0.79 | 95 | 1029.6 |
| 20260510170009 | 15 | 152 | 0.0 | 4.8 | 0.61 | 0.76 | 0.76 | 95 | 1029.6 |
| 20260510165509 | 15 | 145 | 0.0 | 6.4 | 0.61 | 0.71 | 0.71 | 95 | 1029.6 |
| 20260510165009 | 15 | 142 | 0.0 | 6.4 | 0.64 | 0.71 | 0.71 | 95 | 1029.6 |
| 20260510164514 | 15 | 144 | 0.0 | 6.4 | 0.61 | 0.71 | 0.71 | 95 | 1029.6 |
| 20260510164008 | 15 | 128 | 1.6 | 4.8 | 0.58 | 0.69 | 0.69 | 95 | 1029.6 |
| 20260510163507 | 15 | 107 | 0.0 | 0.0 | 0.56 | 0.66 | 0.66 | 95 | 1029.7 |
| 20260510163008 | 15 | 107 | 0.0 | 3.2 | 0.48 | 0.58 | 0.58 | 95 | 1029.8 |
| 20260510162506 | 15 | 107 | 0.0 | 3.2 | 0.46 | 0.53 | 0.53 | 95 | 1029.7 |
| 20260510162006 | 15 | 101 | 0.0 | 4.8 | 0.30 | 0.38 | 0.38 | 95 | 1029.7 |
| 20260510161506 | 15 | 155 | 1.6 | 4.8 | 0.23 | 0.28 | 0.28 | 94 | 1029.7 |
| 20260510161005 | 15 | 153 | 0.0 | 0.0 | 0.20 | 0.23 | 0.23 | 94 | 1029.7 |
| 20260510160505 | 15 | 153 | 0.0 | 0.0 | 0.18 | 0.20 | 0.20 | 94 | 1029.7 |
| 20260510160005 | 15 | 153 | 0.0 | 0.0 | 0.15 | 0.15 | 0.15 | 94 | 1029.6 |
| 20260510155504 | 15 | 153 | 0.0 | 1.6 | 0.13 | 0.13 | 0.13 | 94 | 1029.7 |
| 20260510155004 | 15 | 153 | 0.0 | 4.8 | 0.10 | 0.10 | 0.10 | 94 | 1029.7 |
| 20260510154504 | 15 | 153 | 0.0 | 4.8 | 0.10 | 0.10 | 0.10 | 93 | 1029.7 |
| 20260510154006 | 15 | 111 | 0.0 | 8.0 | 0.10 | 0.10 | 0.10 | 93 | 1029.7 |
| 20260510153505 | 15 | 215 | 1.6 | 8.0 | 0.10 | 0.10 | 0.10 | 93 | 1029.7 |
| 20260510153006 | 15 | 148 | 1.6 | 12.9 | 0.10 | 0.10 | 0.10 | 93 | 1029.7 |
| 20260510152503 | 15 | 139 | 3.2 | 12.9 | 0.08 | 0.08 | 0.08 | 92 | 1029.7 |
| 20260510152003 | 15 | 105 | 0.0 | 8.0 | 0.08 | 0.08 | 0.08 | 92 | 1029.7 |
| 20260510151501 | 15 | 140 | 1.6 | 8.0 | 0.03 | 0.03 | 0.03 | 91 | 1029.7 |
| 20260510151001 | 15 | 161 | 0.0 | 3.2 | 0.03 | 0.03 | 0.03 | 91 | 1029.7 |
| 20260510150502 | 15 | 162 | 0.0 | 4.8 | 0.03 | 0.03 | 0.03 | 91 | 1029.7 |
| 20260510150001 | 15 | 129 | 1.6 | 6.4 | 0.00 | 0.00 | 0.00 | 91 | 1029.7 |
| 20260510145559 | 15 | 121 | 1.6 | 6.4 | 0.00 | 0.00 | 0.00 | 91 | 1029.7 |
| 20260510145059 | 15 | 132 | 3.2 | 4.8 | 0.00 | 0.00 | 0.00 | 91 | 1029.7 |
| 20260510144608 | 15 | 195 | 1.6 | 6.4 | 0.00 | 0.00 | 0.00 | 91 | 1029.7 |
| 20260510144058 | 15 | 155 | 1.6 | 6.4 | 0.00 | 0.00 | 0.00 | 91 | 1029.7 |
| 20260510143556 | 15 | 184 | 0.0 | 4.8 | 0.00 | 0.00 | 0.00 | 91 | 1029.6 |
| 20260510143103 | 15 | 233 | 1.6 | 6.4 | 0.00 | 0.00 | 0.00 | 91 | 1029.6 |
| 20260510142557 | 15 | 144 | 1.6 | 11.3 | 0.00 | 0.00 | 0.00 | 91 | 1029.5 |
| 20260510142058 | 15 | 173 | 1.6 | 11.3 | 0.00 | 0.00 | 0.00 | 91 | 1029.5 |
| 20260510141557 | 15 | 162 | 1.6 | 4.8 | 0.00 | 0.00 | 0.00 | 91 | 1029.5 |
| 20260510141057 | 15 | 134 | 0.0 | 6.4 | 0.00 | 0.00 | 0.00 | 91 | 1029.6 |
| 20260510140555 | 15 | 134 | 1.6 | 6.4 | 0.00 | 0.00 | 0.00 | 91 | 1029.6 |
| 20260510140054 | 15 | 186 | 0.0 | 4.8 | 0.00 | 0.00 | 0.00 | 90 | 1029.6 |
| 20260510135554 | 15 | 188 | 1.6 | 8.0 | 0.00 | 0.00 | 0.00 | 90 | 1029.7 |
| 20260510135054 | 15 | 140 | 0.0 | 8.0 | 0.00 | 0.00 | 0.00 | 90 | 1029.7 |
| 20260510134554 | 15 | 157 | 0.0 | 4.8 | 0.00 | 0.00 | 0.00 | 90 | 1029.7 |
| 20260510134053 | 15 | 137 | 0.0 | 4.8 | 0.00 | 0.00 | 0.00 | 90 | 1029.6 |
| 20260510133554 | 15 | 140 | 0.0 | 6.4 | 0.00 | 0.00 | 0.00 | 90 | 1029.7 |
| 20260510133053 | 15 | 105 | 0.0 | 6.4 | 0.00 | 0.00 | 0.00 | 90 | 1029.7 |
| 20260510132553 | 15 | 194 | 1.6 | 6.4 | 0.00 | 0.00 | 0.00 | 90 | 1029.7 |
| 20260510132053 | 16 | 134 | 1.6 | 6.4 | 0.00 | 0.00 | 0.00 | 90 | 1029.7 |
| 20260510131554 | 16 | 149 | 0.0 | 4.8 | 0.00 | 0.00 | 0.00 | 90 | 1029.7 |
| 20260510131052 | 16 | 202 | 1.6 | 3.2 | 0.00 | 0.00 | 0.00 | 90 | 1029.7 |
| 20260510130552 | 16 | 180 | 0.0 | 3.2 | 0.00 | 0.00 | 0.00 | 89 | 1029.8 |
| 20260510130056 | 16 | 179 | 0.0 | 4.8 | 0.00 | 0.00 | 0.00 | 90 | 1029.8 |
| 20260510125553 | 16 | 161 | 0.0 | 4.8 | 0.00 | 0.00 | 0.00 | 90 | 1029.8 |
| 20260510125051 | 16 | 171 | 0.0 | 4.8 | 0.00 | 0.00 | 0.00 | 89 | 1029.9 |
| 20260510124551 | 16 | 165 | 1.6 | 4.8 | 0.00 | 0.00 | 0.00 | 89 | 1030.0 |
| 20260510124052 | 16 | 132 | 0.0 | 6.4 | 0.00 | 0.00 | 0.00 | 89 | 1030.0 |
| 20260510123551 | 16 | 100 | 1.6 | 6.4 | 0.00 | 0.00 | 0.00 | 89 | 1030.0 |
| 20260510123055 | 16 | 139 | 1.6 | 6.4 | 0.00 | 0.00 | 0.00 | 89 | 1029.9 |
| 20260510122550 | 16 | 157 | 1.6 | 4.8 | 0.00 | 0.00 | 0.00 | 88 | 1029.9 |
| 20260510122050 | 16 | 115 | 1.6 | 4.8 | 0.00 | 0.00 | 0.00 | 88 | 1030.0 |
| 20260510121550 | 16 | 136 | 0.0 | 9.7 | 0.00 | 0.00 | 0.00 | 88 | 1030.0 |
| 20260510121050 | 16 | 103 | 1.6 | 9.7 | 0.00 | 0.00 | 0.00 | 88 | 1030.0 |
| 20260510120552 | 16 | 155 | 3.2 | 9.7 | 0.00 | 0.00 | 0.00 | 88 | 1030.0 |
| 20260510120052 | 16 | 109 | 3.2 | 8.0 | 0.00 | 0.00 | 0.00 | 88 | 1030.0 |
| 20260510115550 | 16 | 124 | 1.6 | 6.4 | 0.00 | 0.00 | 0.00 | 88 | 1030.0 |
| 20260510115049 | 16 | 129 | 1.6 | 6.4 | 0.00 | 0.00 | 0.00 | 88 | 1030.0 |
| 20260510114549 | 16 | 153 | 1.6 | 6.4 | 0.00 | 0.00 | 0.00 | 88 | 1030.0 |
| 20260510114048 | 16 | 105 | 1.6 | 6.4 | 0.00 | 0.00 | 0.00 | 88 | 1029.9 |
| 20260510113550 | 16 | 128 | 1.6 | 6.4 | 0.00 | 0.00 | 0.00 | 88 | 1030.0 |
| 20260510113057 | 16 | 126 | 1.6 | 6.4 | 0.00 | 0.00 | 0.00 | 88 | 1029.9 |
| 20260510112549 | 16 | 121 | 1.6 | 6.4 | 0.00 | 0.00 | 0.00 | 88 | 1029.9 |
| 20260510112049 | 16 | 120 | 1.6 | 6.4 | 0.00 | 0.00 | 0.00 | 87 | 1030.0 |
| 20260510111549 | 17 | 88 | 1.6 | 6.4 | 0.00 | 0.00 | 0.00 | 87 | 1029.9 |
| 20260510111048 | 17 | 123 | 1.6 | 6.4 | 0.00 | 0.00 | 0.00 | 87 | 1029.9 |
| 20260510110550 | 17 | 136 | 1.6 | 6.4 | 0.00 | 0.00 | 0.00 | 86 | 1029.9 |
| 20260510110048 | 17 | 126 | 1.6 | 4.8 | 0.00 | 0.00 | 0.00 | 86 | 1029.9 |
| 20260510105547 | 17 | 120 | 1.6 | 6.4 | 0.00 | 0.00 | 0.00 | 85 | 1030.0 |
| 20260510105048 | 17 | 103 | 1.6 | 9.7 | 0.00 | 0.00 | 0.00 | 84 | 1029.9 |
| 20260510104547 | 17 | 157 | 1.6 | 9.7 | 0.00 | 0.00 | 0.00 | 84 | 1029.9 |
| 20260510104050 | 17 | 140 | 1.6 | 6.4 | 0.00 | 0.00 | 0.00 | 83 | 1029.9 |
| 20260510103546 | 17 | 165 | 1.6 | 6.4 | 0.00 | 0.00 | 0.00 | 82 | 1029.9 |
| 20260510103046 | 17 | 154 | 3.2 | 6.4 | 0.00 | 0.00 | 0.00 | 82 | 1029.9 |
| 20260510102546 | 17 | 123 | 1.6 | 9.7 | 0.00 | 0.00 | 0.00 | 82 | 1029.9 |
| 20260510102046 | 17 | 120 | 1.6 | 8.0 | 0.00 | 0.00 | 0.00 | 82 | 1029.9 |
| 20260510101554 | 17 | 148 | 1.6 | 8.0 | 0.00 | 0.00 | 0.00 | 82 | 1029.8 |
| 20260510101048 | 17 | 221 | 3.2 | 6.4 | 0.00 | 0.00 | 0.00 | 82 | 1029.8 |
| 20260510100544 | 17 | 142 | 1.6 | 8.0 | 0.00 | 0.00 | 0.00 | 82 | 1029.7 |
| 20260510100044 | 18 | 153 | 3.2 | 9.7 | 0.00 | 0.00 | 0.00 | 82 | 1029.7 |
| 20260510095544 | 18 | 130 | 4.8 | 12.9 | 0.00 | 0.00 | 0.00 | 82 | 1029.7 |
| 20260510095043 | 18 | 117 | 4.8 | 12.9 | 0.00 | 0.00 | 0.00 | 83 | 1029.6 |
| 20260510094544 | 18 | 149 | 3.2 | 9.7 | 0.00 | 0.00 | 0.00 | 83 | 1029.5 |
| 20260510094041 | 18 | 110 | 3.2 | 8.0 | 0.00 | 0.00 | 0.00 | 84 | 1029.5 |
| 20260510093541 | 18 | 128 | 3.2 | 8.0 | 0.00 | 0.00 | 0.00 | 84 | 1029.4 |
| 20260510093045 | 18 | 164 | 1.6 | 8.0 | 0.00 | 0.00 | 0.00 | 84 | 1029.4 |
| 20260510092540 | 18 | 145 | 1.6 | 16.1 | 0.00 | 0.00 | 0.00 | 84 | 1029.3 |
| 20260510092040 | 18 | 138 | 4.8 | 16.1 | 0.00 | 0.00 | 0.00 | 85 | 1029.4 |
| 20260510091543 | 18 | 83 | 3.2 | 8.0 | 0.00 | 0.00 | 0.00 | 85 | 1029.3 |
| 20260510091039 | 18 | 149 | 1.6 | 6.4 | 0.00 | 0.00 | 0.00 | 86 | 1029.2 |
| 20260510090539 | 18 | 163 | 1.6 | 9.7 | 0.00 | 0.00 | 0.00 | 86 | 1029.2 |
| 20260510090040 | 18 | 146 | 1.6 | 11.3 | 0.00 | 0.00 | 0.00 | 87 | 1029.1 |
| 20260510085543 | 17 | 142 | 1.6 | 8.0 | 0.00 | 0.00 | 0.00 | 87 | 1029.0 |
| 20260510085037 | 18 | 143 | 1.6 | 9.7 | 0.00 | 0.00 | 0.00 | 87 | 1029.0 |
| 20260510084540 | 18 | 121 | 1.6 | 9.7 | 0.00 | 0.00 | 0.00 | 86 | 1028.9 |
| 20260510084037 | 18 | 121 | 3.2 | 9.7 | 0.00 | 0.00 | 0.00 | 86 | 1028.8 |
| 20260510083536 | 18 | 113 | 0.0 | 9.7 | 0.00 | 0.00 | 0.00 | 1028.8 | |
| 20260510083035 | -17 | 0.0 | 0.0 | 0.00 | 0.00 | 0.00 | 1028.8 | ||
| 20260510082532 | -17 | 0.0 | 0.0 | 0.00 | 0.00 | 0.00 | 1028.7 | ||
| 20260510082031 | -17 | 0.0 | 0.0 | 0.00 | 0.00 | 0.00 | 1028.7 | ||
| 20260510081530 | -17 | 0.0 | 0.0 | 0.00 | 0.00 | 0.00 | 1028.6 | ||
| 20260510081030 | -17 | 0.0 | 0.0 | 0.00 | 0.00 | 0.00 | 1028.5 | ||
| 20260510080527 | -17 | 0.0 | 0.0 | 0.00 | 0.00 | 0.00 | 1028.5 | ||
| 20260510080033 | -17 | 0.0 | 0.0 | 0.00 | 0.00 | 0.00 | 1028.4 | ||
| 20260510075524 | -17 | 0.0 | 0.0 | 0.00 | 0.00 | 0.00 | 1028.4 | ||
| 20260510075023 | -17 | 0.0 | 0.0 | 0.00 | 0.00 | 0.00 | 1028.4 | ||
| 20260510074522 | -17 | 0.0 | 0.0 | 0.00 | 0.00 | 0.00 | 1028.3 | ||
| 20260510074020 | -17 | 0.0 | 0.0 | 0.00 | 0.00 | 0.00 | 1028.3 | ||
| 20260510073518 | -17 | 0.0 | 0.0 | 0.00 | 0.00 | 0.00 | 1028.3 | ||
| 20260510073022 | -17 | 0.0 | 0.0 | 0.00 | 0.00 | 0.00 | 1028.3 | ||
| 20260510072516 | -17 | 0.0 | 0.0 | 0.00 | 0.00 | 0.00 | 1028.2 | ||
| 20260510072017 | -17 | 0.0 | 0.0 | 0.00 | 0.00 | 0.00 | 1028.2 | ||
| 20260510071513 | -17 | 0.0 | 0.0 | 0.00 | 0.00 | 0.00 | 1028.2 | ||
| 20260510071011 | -17 | 0.0 | 0.0 | 0.00 | 0.00 | 0.00 | 1028.2 | ||
| 20260510070610 | -17 | 0.0 | 0.0 | 0.00 | 0.00 | 0.00 | 1028.0 | ||
| 20260510070009 | -17 | 0.0 | 0.0 | 0.00 | 0.00 | 0.00 | 1027.9 | ||
| 20260510065507 | -17 | 0.0 | 0.0 | 0.00 | 0.00 | 0.00 | 1027.9 | ||
| 20260510065009 | -17 | 0.0 | 0.0 | 0.00 | 0.00 | 0.00 | 1027.9 | ||
| 20260510064515 | -17 | 0.0 | 0.0 | 0.00 | 0.00 | 0.00 | 1027.8 | ||
| 20260510064002 | -17 | 0.0 | 0.0 | 0.00 | 0.00 | 0.00 | 1027.8 | ||
| 20260510063502 | 19 | 108 | 4.8 | 12.9 | 0.00 | 0.00 | 0.00 | 78 | 1027.7 |
| 20260510063002 | 19 | 108 | 4.8 | 12.9 | 0.00 | 0.00 | 0.00 | 78 | 1027.7 |
| 20260510062501 | 19 | 64 | 3.2 | 12.9 | 0.00 | 0.00 | 0.00 | 78 | 1027.6 |
| 20260510062001 | 19 | 142 | 4.8 | 16.1 | 0.00 | 0.00 | 0.00 | 77 | 1027.6 |
| 20260510061502 | 20 | 160 | 6.4 | 16.1 | 0.00 | 0.00 | 0.00 | 76 | 1027.6 |
| 20260510061002 | 20 | 144 | 4.8 | 14.5 | 0.00 | 0.00 | 0.00 | 75 | 1027.5 |
| 20260510060503 | 20 | 109 | 3.2 | 12.9 | 0.00 | 0.00 | 0.00 | 75 | 1027.4 |
| 20260510060003 | 20 | 128 | 3.2 | 11.3 | 0.00 | 0.00 | 0.00 | 75 | 1027.4 |
| 20260510055500 | 20 | 131 | 1.6 | 12.9 | 0.00 | 0.00 | 0.00 | 76 | 1027.3 |
| 20260510055100 | 20 | 145 | 3.2 | 9.7 | 0.00 | 0.00 | 0.00 | 76 | 1027.3 |
| 20260510054605 | 20 | 88 | 3.2 | 9.7 | 0.00 | 0.00 | 0.00 | 75 | 1027.2 |
| 20260510054100 | 20 | 104 | 3.2 | 17.7 | 0.00 | 0.00 | 0.00 | 75 | 1027.2 |
| 20260510053559 | 20 | 101 | 4.8 | 17.7 | 0.00 | 0.00 | 0.00 | 73 | 1027.1 |
| 20260510053059 | 20 | 100 | 4.8 | 16.1 | 0.00 | 0.00 | 0.00 | 73 | 1027.1 |
| 20260510052559 | 20 | 136 | 4.8 | 16.1 | 0.00 | 0.00 | 0.00 | 72 | 1027.1 |
| 20260510052102 | 20 | 89 | 3.2 | 16.1 | 0.00 | 0.00 | 0.00 | 71 | 1027.0 |
| 20260510051604 | 20 | 96 | 3.2 | 12.9 | 0.00 | 0.00 | 0.00 | 70 | 1027.0 |
| 20260510051101 | 20 | 109 | 3.2 | 12.9 | 0.00 | 0.00 | 0.00 | 69 | 1026.9 |
| 20260510050557 | 20 | 148 | 4.8 | 12.9 | 0.00 | 0.00 | 0.00 | 69 | 1026.8 |
| 20260510045601 | 20 | 91 | 4.8 | 17.7 | 0.00 | 0.00 | 0.00 | 68 | 1026.8 |
| 20260510045057 | 20 | 90 | 4.8 | 16.1 | 0.00 | 0.00 | 0.00 | 68 | 1026.8 |
| 20260510044557 | 20 | 143 | 4.8 | 16.1 | 0.00 | 0.00 | 0.00 | 68 | 1026.7 |
| 20260510044056 | 20 | 92 | 4.8 | 16.1 | 0.00 | 0.00 | 0.00 | 69 | 1026.7 |
| 20260510043556 | 20 | 108 | 4.8 | 14.5 | 0.00 | 0.00 | 0.00 | 68 | 1026.8 |
| 20260510043056 | 20 | 100 | 4.8 | 14.5 | 0.00 | 0.00 | 0.00 | 67 | 1026.7 |
| 20260510042559 | 21 | 109 | 3.2 | 9.7 | 0.00 | 0.00 | 0.00 | 67 | 1026.7 |
| 20260510042055 | 21 | 138 | 3.2 | 14.5 | 0.00 | 0.00 | 0.00 | 68 | 1026.6 |
| 20260510041554 | 21 | 95 | 4.8 | 14.5 | 0.00 | 0.00 | 0.00 | 67 | 1026.6 |
| 20260510041054 | 20 | 50 | 3.2 | 12.9 | 0.00 | 0.00 | 0.00 | 69 | 1026.7 |
| 20260510040554 | 20 | 129 | 3.2 | 9.7 | 0.00 | 0.00 | 0.00 | 70 | 1026.6 |
| 20260510040054 | 20 | 98 | 3.2 | 14.5 | 0.00 | 0.00 | 0.00 | 70 | 1026.6 |
| 20260510035553 | 20 | 69 | 4.8 | 14.5 | 0.00 | 0.00 | 0.00 | 69 | 1026.6 |
| 20260510035053 | 20 | 100 | 4.8 | 14.5 | 0.00 | 0.00 | 0.00 | 69 | 1026.6 |
| 20260510034614 | 20 | 95 | 4.8 | 14.5 | 0.00 | 0.00 | 0.00 | 69 | 1026.6 |
| 20260510034053 | 20 | 121 | 4.8 | 12.9 | 0.00 | 0.00 | 0.00 | 68 | 1026.6 |
| 20260510033553 | 20 | 88 | 3.2 | 12.9 | 0.00 | 0.00 | 0.00 | 67 | 1026.7 |
| 20260510033058 | 20 | 80 | 3.2 | 9.7 | 0.00 | 0.00 | 0.00 | 67 | 1026.7 |
| 20260510032552 | 20 | 95 | 3.2 | 8.0 | 0.00 | 0.00 | 0.00 | 67 | 1026.8 |
| 20260510032053 | 20 | 205 | 3.2 | 12.9 | 0.00 | 0.00 | 0.00 | 68 | 1026.8 |
| 20260510031553 | 20 | 75 | 3.2 | 12.9 | 0.00 | 0.00 | 0.00 | 67 | 1026.8 |
| 20260510031053 | 20 | 76 | 3.2 | 9.7 | 0.00 | 0.00 | 0.00 | 67 | 1026.9 |
| 20260510030551 | -17 | 0.0 | 0.0 | 0.00 | 0.00 | 0.00 | 1026.9 | ||
| 20260510030053 | -17 | 0.0 | 0.0 | 0.00 | 0.00 | 0.00 | 1026.9 | ||
| 20260510025549 | -17 | 0.0 | 0.0 | 0.00 | 0.00 | 0.00 | 1027.0 | ||
| 20260510025048 | 20 | 100 | 3.2 | 12.9 | 0.00 | 0.00 | 0.00 | 65 | 1027.0 |
| 20260510024548 | 20 | 100 | 3.2 | 12.9 | 0.00 | 0.00 | 0.00 | 65 | 1027.0 |
| 20260510024046 | 20 | 86 | 4.8 | 12.9 | 0.00 | 0.00 | 0.00 | 65 | 1027.0 |
| 20260510023547 | 21 | 92 | 3.2 | 11.3 | 0.00 | 0.00 | 0.00 | 66 | 1027.0 |
| 20260510023047 | 21 | 96 | 3.2 | 11.3 | 0.00 | 0.00 | 0.00 | 66 | 1027.1 |
| 20260510022547 | 21 | 127 | 3.2 | 11.3 | 0.00 | 0.00 | 0.00 | 65 | 1027.1 |
| 20260510022046 | 20 | 149 | 1.6 | 9.7 | 0.00 | 0.00 | 0.00 | 66 | 1027.2 |
| 20260510021557 | 21 | 112 | 4.8 | 9.7 | 0.00 | 0.00 | 0.00 | 65 | 1027.2 |
| 20260510021046 | 21 | 90 | 3.2 | 11.3 | 0.00 | 0.00 | 0.00 | 65 | 1027.2 |
| 20260510020544 | 21 | 106 | 3.2 | 8.0 | 0.00 | 0.00 | 0.00 | 65 | 1027.3 |
| 20260510020044 | 21 | 136 | 3.2 | 9.7 | 0.00 | 0.00 | 0.00 | 65 | 1027.4 |
| 20260510015542 | 20 | 96 | 3.2 | 11.3 | 0.00 | 0.00 | 0.00 | 65 | 1027.5 |
| 20260510015042 | 21 | 188 | 3.2 | 9.7 | 0.00 | 0.00 | 0.00 | 64 | 1027.5 |
| 20260510014546 | 21 | 136 | 1.6 | 9.7 | 0.00 | 0.00 | 0.00 | 65 | 1027.6 |
| 20260510014042 | 20 | 132 | 3.2 | 9.7 | 0.00 | 0.00 | 0.00 | 64 | 1027.6 |
| 20260510013541 | 21 | 93 | 1.6 | 9.7 | 0.00 | 0.00 | 0.00 | 63 | 1027.7 |
| 20260510013039 | 20 | 146 | 1.6 | 12.9 | 0.00 | 0.00 | 0.00 | 62 | 1027.7 |
| 20260510012539 | 21 | 190 | 4.8 | 12.9 | 0.00 | 0.00 | 0.00 | 61 | 1027.7 |
| 20260510012039 | 21 | 117 | 3.2 | 6.4 | 0.00 | 0.00 | 0.00 | 62 | 1027.9 |
| 20260510011538 | 20 | 123 | 1.6 | 6.4 | 0.00 | 0.00 | 0.00 | 64 | 1027.9 |
| 20260510011036 | 20 | 189 | 1.6 | 4.8 | 0.00 | 0.00 | 0.00 | 64 | 1027.9 |
| 20260510010535 | 20 | 207 | 1.6 | 9.7 | 0.00 | 0.00 | 0.00 | 64 | 1028.0 |
| 20260510010039 | 20 | 107 | 3.2 | 9.7 | 0.00 | 0.00 | 0.00 | 63 | 1028.1 |
| 20260510005535 | 20 | 88 | 1.6 | 6.4 | 0.00 | 0.00 | 0.00 | 62 | 1028.1 |
| 20260510005033 | 20 | 93 | 1.6 | 6.4 | 0.00 | 0.00 | 0.00 | 64 | 1028.2 |
| 20260510004533 | 20 | 45 | 1.6 | 6.4 | 0.00 | 0.00 | 0.00 | 64 | 1028.3 |
| 20260510004031 | 20 | 119 | 1.6 | 6.4 | 0.00 | 0.00 | 0.00 | 65 | 1028.2 |
| 20260510003530 | 19 | 163 | 0.0 | 11.3 | 0.00 | 0.00 | 0.00 | 67 | 1028.3 |
| 20260510003030 | 19 | 182 | 1.6 | 11.3 | 0.00 | 0.00 | 0.00 | 67 | 1028.3 |
| 20260510002528 | 19 | 126 | 3.2 | 11.3 | 0.00 | 0.00 | 0.00 | 67 | 1028.3 |
| 20260510002027 | 18 | 177 | 4.8 | 8.0 | 0.00 | 0.00 | 0.00 | 68 | 1028.3 |
| 20260510001525 | 18 | 171 | 0.0 | 8.0 | 0.00 | 0.00 | 0.00 | 70 | 1028.3 |
| 20260510001024 | 18 | 140 | 1.6 | 8.0 | 0.00 | 0.00 | 0.00 | 71 | 1028.2 |
| 20260510000523 | 18 | 171 | 1.6 | 8.0 | 0.00 | 0.00 | 0.00 | 72 | 1028.2 |
| 20260510000022 | 18 | 204 | 1.6 | 6.4 | 0.00 | 0.00 | 0.00 | 73 | 1028.2 |
| 20260509235520 | 17 | 227 | 0.0 | 6.4 | 0.00 | 0.00 | 0.00 | 74 | 1028.1 |
| 20260509235019 | 17 | 247 | 1.6 | 6.4 | 0.00 | 0.00 | 0.00 | 75 | 1028.1 |
| 20260509234518 | 17 | 234 | 1.6 | 6.4 | 0.00 | 0.00 | 0.00 | 75 | 1028.1 |
| 20260509234017 | 17 | 258 | 3.2 | 6.4 | 0.00 | 0.00 | 0.00 | 75 | 1028.0 |
| 20260509233515 | 17 | 171 | 1.6 | 6.4 | 0.00 | 0.00 | 0.00 | 75 | 1028.0 |
| 20260509233019 | 17 | 231 | 3.2 | 6.4 | 0.00 | 0.00 | 0.00 | 76 | 1027.9 |
| 20260509232514 | 17 | 209 | 3.2 | 6.4 | 0.00 | 0.00 | 0.00 | 77 | 1027.9 |
| 20260509232011 | 17 | 212 | 1.6 | 6.4 | 0.00 | 0.00 | 0.00 | 78 | 1027.9 |
| 20260509231512 | 17 | 205 | 3.2 | 6.4 | 0.00 | 0.00 | 0.00 | 77 | 1027.9 |
| 20260509231010 | 17 | 211 | 3.2 | 6.4 | 0.00 | 0.00 | 0.00 | 78 | 1027.9 |
| 20260509230510 | 16 | 215 | 0.0 | 4.8 | 0.00 | 0.00 | 0.00 | 78 | 1027.9 |
| 20260509230009 | 16 | 186 | 1.6 | 4.8 | 0.00 | 0.00 | 0.00 | 78 | 1027.9 |
| 20260509225507 | 16 | 220 | 1.6 | 4.8 | 0.00 | 0.00 | 0.00 | 78 | 1027.8 |
| 20260509225006 | 16 | 179 | 0.0 | 4.8 | 0.00 | 0.00 | 0.00 | 79 | 1027.7 |
| 20260509224504 | 16 | 266 | 0.0 | 1.6 | 0.00 | 0.00 | 0.00 | 80 | 1027.8 |
| 20260509224004 | 16 | 266 | 0.0 | 1.6 | 0.00 | 0.00 | 0.00 | 81 | 1027.7 |
| 20260509223503 | 15 | 267 | 0.0 | 1.6 | 0.00 | 0.00 | 0.00 | 80 | 1027.7 |
| 20260509223002 | 15 | 267 | 0.0 | 3.2 | 0.00 | 0.00 | 0.00 | 81 | 1027.8 |
| 20260509222500 | 15 | 272 | 0.0 | 4.8 | 0.00 | 0.00 | 0.00 | 82 | 1027.7 |
| 20260509222059 | 15 | 272 | 1.6 | 4.8 | 0.00 | 0.00 | 0.00 | 82 | 1027.7 |
| 20260509221621 | 15 | 283 | 0.0 | 4.8 | 0.00 | 0.00 | 0.00 | 83 | 1027.7 |
| 20260509221057 | 14 | 292 | 1.6 | 4.8 | 0.00 | 0.00 | 0.00 | 84 | 1027.6 |
| 20260509220557 | 14 | 292 | 1.6 | 4.8 | 0.00 | 0.00 | 0.00 | 84 | 1027.7 |
| 20260509220055 | 14 | 292 | 1.6 | 4.8 | 0.00 | 0.00 | 0.00 | 84 | 1027.6 |
| 20260509215555 | 14 | 294 | 1.6 | 4.8 | 0.00 | 0.00 | 0.00 | 84 | 1027.6 |
| 20260509215055 | 14 | 294 | 1.6 | 4.8 | 0.00 | 0.00 | 0.00 | 84 | 1027.5 |
| 20260509214601 | 14 | 289 | 1.6 | 4.8 | 0.00 | 0.00 | 0.00 | 84 | 1027.4 |
| 20260509214051 | 13 | 289 | 1.6 | 3.2 | 0.00 | 0.00 | 0.00 | 85 | 1027.4 |
| 20260509213551 | 13 | 289 | 1.6 | 3.2 | 0.00 | 0.00 | 0.00 | 85 | 1027.3 |
| 20260509213050 | 13 | 289 | 1.6 | 3.2 | 0.00 | 0.00 | 0.00 | 85 | 1027.3 |
| 20260509212549 | 13 | 289 | 1.6 | 3.2 | 0.00 | 0.00 | 0.00 | 85 | 1027.3 |
| 20260509212049 | 13 | 289 | 0.0 | 4.8 | 0.00 | 0.00 | 0.00 | 86 | 1027.1 |
| 20260509211550 | 13 | 289 | 1.6 | 4.8 | 0.00 | 0.00 | 0.00 | 86 | 1027.1 |
| 20260509211048 | 13 | 289 | 1.6 | 4.8 | 0.00 | 0.00 | 0.00 | 86 | 1027.0 |
| 20260509210548 | 13 | 289 | 1.6 | 4.8 | 0.00 | 0.00 | 0.00 | 86 | 1027.0 |
| 20260509210049 | 13 | 286 | 1.6 | 4.8 | 0.00 | 0.00 | 0.00 | 86 | 1027.0 |
| 20260509205548 | 13 | 286 | 1.6 | 4.8 | 0.00 | 0.00 | 0.00 | 86 | 1026.9 |
| 20260509205046 | 13 | 285 | 1.6 | 4.8 | 0.00 | 0.00 | 0.00 | 86 | 1026.9 |
| 20260509204545 | 13 | 285 | 1.6 | 4.8 | 0.00 | 0.00 | 0.00 | 87 | 1026.8 |
| 20260509204045 | 13 | 285 | 3.2 | 4.8 | 0.00 | 0.00 | 0.00 | 87 | 1026.8 |
| 20260509203543 | 13 | 285 | 1.6 | 4.8 | 0.00 | 0.00 | 0.00 | 88 | 1026.7 |
| 20260509203044 | 13 | 285 | 0.0 | 3.2 | 0.00 | 0.00 | 0.00 | 88 | 1026.6 |
| 20260509202542 | 12 | 285 | 0.0 | 3.2 | 0.00 | 0.00 | 0.00 | 88 | 1026.6 |
| 20260509202042 | 12 | 285 | 0.0 | 3.2 | 0.00 | 0.00 | 0.00 | 89 | 1026.5 |
| 20260509201543 | 12 | 285 | 1.6 | 3.2 | 0.00 | 0.00 | 0.00 | 89 | 1026.5 |
| 20260509201041 | 12 | 285 | 0.0 | 3.2 | 0.00 | 0.00 | 0.00 | 89 | 1026.4 |
| 20260509200541 | 12 | 285 | 0.0 | 3.2 | 0.00 | 0.00 | 0.00 | 89 | 1026.4 |
| 20260509200047 | 12 | 285 | 0.0 | 4.8 | 0.00 | 0.00 | 0.00 | 89 | 1026.3 |
| 20260509195540 | 12 | 285 | 1.6 | 4.8 | 0.00 | 0.00 | 0.00 | 90 | 1026.3 |
| 20260509195038 | 12 | 296 | 0.0 | 3.2 | 0.00 | 0.00 | 0.00 | 90 | 1026.2 |
| 20260509194548 | 12 | 296 | 0.0 | 3.2 | 0.00 | 0.00 | 0.00 | 90 | 1026.2 |
| 20260509194040 | 12 | 296 | 0.0 | 0.0 | 0.00 | 0.00 | 0.00 | 89 | 1026.1 |
| 20260509193537 | 12 | 296 | 0.0 | 3.2 | 0.00 | 0.00 | 0.00 | 89 | 1026.1 |
| 20260509193039 | 12 | 296 | 0.0 | 4.8 | 0.00 | 0.00 | 0.00 | 89 | 1026.0 |
| 20260509192539 | 13 | 296 | 1.6 | 4.8 | 0.00 | 0.00 | 0.00 | 88 | 1025.9 |
| 20260509192036 | 13 | 296 | 1.6 | 4.8 | 0.00 | 0.00 | 0.00 | 88 | 1025.9 |
| 20260509191537 | 13 | 296 | 0.0 | 4.8 | 0.00 | 0.00 | 0.00 | 88 | 1025.8 |
| 20260509191036 | 13 | 168 | 1.6 | 6.4 | 0.00 | 0.00 | 0.00 | 88 | 1025.7 |
| 20260509190536 | 13 | 132 | 3.2 | 6.4 | 0.00 | 0.00 | 0.00 | 89 | 1025.7 |
| 20260509190134 | 13 | 130 | 0.0 | 3.2 | 0.00 | 0.00 | 0.00 | 89 | 1025.7 |
| 20260509185535 | 13 | 139 | 0.0 | 4.8 | 0.00 | 0.00 | 0.00 | 89 | 1025.7 |
| 20260509185033 | 13 | 102 | 1.6 | 4.8 | 0.00 | 0.00 | 0.00 | 89 | 1025.6 |
| 20260509184536 | 13 | 136 | 0.0 | 4.8 | 0.00 | 0.00 | 0.00 | 89 | 1025.6 |
| 20260509184033 | 13 | 134 | 1.6 | 4.8 | 0.00 | 0.00 | 0.00 | 89 | 1025.6 |
| 20260509183531 | 13 | 156 | 0.0 | 3.2 | 0.00 | 0.00 | 0.00 | 89 | 1025.5 |
| 20260509183043 | 13 | 198 | 0.0 | 3.2 | 0.00 | 0.00 | 0.00 | 89 | 1025.5 |
| 20260509182531 | 13 | 198 | 0.0 | 3.2 | 0.00 | 0.00 | 0.00 | 89 | 1025.4 |
| 20260509182030 | 13 | 198 | 0.0 | 3.2 | 0.00 | 0.00 | 0.00 | 89 | 1025.4 |
| 20260509181530 | 13 | 198 | 0.0 | 3.2 | 0.00 | 0.00 | 0.00 | 89 | 1025.3 |
| 20260509181029 | 13 | 198 | 0.0 | 3.2 | 0.00 | 0.00 | 0.00 | 89 | 1025.3 |
| 20260509180529 | 13 | 202 | 0.0 | 4.8 | 0.00 | 0.00 | 0.00 | 89 | 1025.3 |
| 20260509180028 | 13 | 200 | 0.0 | 4.8 | 0.00 | 0.00 | 0.00 | 89 | 1025.3 |
| 20260509175528 | 13 | 151 | 0.0 | 4.8 | 0.00 | 0.00 | 0.00 | 89 | 1025.2 |
| 20260509175027 | 13 | 232 | 0.0 | 4.8 | 0.00 | 0.00 | 0.00 | 89 | 1025.2 |
| 20260509174541 | 13 | 307 | 0.0 | 4.8 | 0.00 | 0.00 | 0.00 | 89 | 1025.1 |